カタログに戻る

SL-8 DEB

運用中LEO
NORAD 21918·DEBRIS·🇷🇺 Russia

打ち上げ Feb 12, 1991 から Plesetsk Cosmodrome

Loading…

次のパス (今後24時間)

TLE

最新Source: Space-Track

元期: Sep 14, 2026, 04:50 UTC

1 21918U 91009CB  26257.20148464 -.00000001  00000-0  11514-3 0  9998
2 21918  74.0788  72.6918 0123338  56.3815   1.6833 12.22340729583120

AllMySatでSL-8 DEBをリアルタイム追跡

Download on the App Store